GW7189 Weather Reports


time (UTC)temp
C
wind
direction
speed
KPH
gust
KPH
rain 1hr
cm
rain 24hr
cm
rain mn
cm
humidity
%
barometer
mb
20260906174059 26 328 0.0 3.2 0.00 0.00 0.00 72 1018.9
20260906173557 25 208 3.2 6.4 0.00 0.00 0.00 71 1018.9
20260906173100 25 301 1.6 3.2 0.00 0.00 0.00 73 1018.9
20260906172557 25 266 3.2 8.0 0.00 0.00 0.00 73 1018.9
20260906172059 25 226 3.2 6.4 0.00 0.00 0.00 74 1019.0
20260906171557 24 189 0.0 3.2 0.00 0.00 0.00 76 1019.1
20260906171059 24 213 0.0 1.6 0.00 0.00 0.00 77 1019.2
20260906170557 24 235 1.6 3.2 0.00 0.00 0.00 76 1019.5
20260906170103 24 236 0.0 1.6 0.00 0.00 0.00 76 1019.5
20260906165557 24 289 0.0 3.2 0.00 0.00 0.00 77 1019.6
20260906165057 24 234 1.6 3.2 0.00 0.00 0.00 77 1019.6
20260906164557 24 335 0.0 1.6 0.00 0.00 0.00 78 1019.6
20260906164059 24 360 0.0 0.0 0.00 0.00 0.00 79 1019.6
20260906163557 23 238 1.6 3.2 0.00 0.00 0.00 78 1019.5
20260906163058 23 219 0.0 4.8 0.00 0.00 0.00 78 1019.4
20260906162556 23 346 1.6 3.2 0.00 0.00 0.00 78 1019.5
20260906162059 23 291 0.0 3.2 0.00 0.00 0.00 79 1019.6
20260906161557 23 238 1.6 4.8 0.00 0.00 0.00 78 1019.7
20260906161057 23 20 1.6 3.2 0.00 0.00 0.00 79 1019.7
20260906160557 23 23 0.0 1.6 0.00 0.00 0.00 80 1019.6
20260906155558 23 246 1.6 3.2 0.00 0.00 0.00 81 1019.5
20260906155100 22 273 0.0 1.6 0.00 0.00 0.00 82 1019.6
20260906154558 22 217 1.6 3.2 0.00 0.00 0.00 82 1019.6
20260906154056 22 213 1.6 3.2 0.00 0.00 0.00 82 1019.6
20260906153557 22 312 1.6 3.2 0.00 0.00 0.00 83 1019.7
20260906153059 22 246 0.0 1.6 0.00 0.00 0.00 82 1019.8
20260906152557 22 273 1.6 1.6 0.00 0.00 0.00 84 1020.0
20260906152058 22 265 1.6 1.6 0.00 0.00 0.00 86 1020.0
20260906151557 22 231 3.2 3.2 0.00 0.00 0.00 86 1020.0
20260906151058 21 14 0.0 1.6 0.00 0.00 0.00 89 1019.9
20260906150557 21 274 3.2 3.2 0.00 0.00 0.00 88 1019.8
20260906145557 21 17 0.0 1.6 0.00 0.00 0.00 91 1019.8
20260906145057 21 231 0.0 0.0 0.00 0.00 0.00 92 1019.8
20260906144557 21 258 1.6 3.2 0.00 0.00 0.00 92 1019.8
20260906144101 20 57 1.6 1.6 0.00 0.00 0.00 92 1019.7
20260906143557 20 223 0.0 1.6 0.00 0.00 0.00 93 1019.7
20260906143100 20 360 0.0 0.0 0.00 0.00 0.00 94 1019.7
20260906142557 20 360 0.0 0.0 0.00 0.00 0.00 94 1019.8
20260906142059 20 239 0.0 1.6 0.00 0.00 0.00 94 1019.9
20260906141557 20 263 1.6 3.2 0.00 0.00 0.00 94 1019.9
20260906141058 20 212 1.6 3.2 0.00 0.00 0.00 95 1019.8
20260906140557 20 190 1.6 3.2 0.00 0.00 0.00 94 1019.8
20260906140057 20 220 1.6 3.2 0.00 0.00 0.00 94 1019.8
20260906135558 20 297 0.0 0.0 0.00 0.00 0.00 94 1019.8
20260906135059 20 250 1.6 3.2 0.00 0.00 0.00 95 1019.7
20260906134557 20 333 0.0 1.6 0.00 0.00 0.00 95 1019.6
20260906134100 20 274 3.2 4.8 0.00 0.00 0.00 95 1019.5
20260906133557 20 219 0.0 0.0 0.00 0.00 0.00 95 1019.4
20260906133059 20 317 0.0 1.6 0.00 0.00 0.00 96 1019.2
20260906132557 20 339 0.0 1.6 0.00 0.00 0.00 96 1019.2
20260906132057 20 91 0.0 0.0 0.00 0.00 0.00 96 1019.2
20260906131557 20 241 0.0 1.6 0.00 0.00 0.00 96 1019.2
20260906131058 20 24 0.0 1.6 0.00 0.00 0.00 96 1019.1
20260906130558 20 263 0.0 1.6 0.00 0.00 0.00 96 1019.0
20260906130100 20 325 0.0 1.6 0.00 0.00 0.00 96 1019.0
20260906125557 20 244 1.6 3.2 0.00 0.00 0.00 96 1019.0
20260906125100 20 253 0.0 1.6 0.00 0.00 0.00 97 1019.0
20260906124559 20 360 0.0 0.0 0.00 0.00 0.00 97 1018.9
20260906124059 19 324 1.6 1.6 0.00 0.00 0.00 98 1018.9
20260906123559 19 290 0.0 0.0 0.00 0.00 0.00 98 1019.0
20260906123059 19 236 0.0 3.2 0.00 0.00 0.00 98 1019.0
20260906122557 19 360 0.0 0.0 0.00 0.00 0.00 98 1018.9
20260906122058 19 219 0.0 1.6 0.00 0.00 0.00 98 1018.9
20260906121557 19 237 0.0 1.6 0.00 0.00 0.00 98 1018.9
20260906121058 19 245 0.0 1.6 0.00 0.00 0.00 98 1018.8
20260906120557 19 264 1.6 3.2 0.00 0.00 0.00 98 1018.8
20260906120059 19 295 0.0 0.0 0.00 0.00 0.00 98 1018.7
20260906115557 19 116 0.0 0.0 0.00 0.00 0.00 98 1018.6
20260906115057 19 218 0.0 0.0 0.00 0.00 0.00 98 1018.6
20260906114557 19 360 0.0 0.0 0.00 0.00 0.00 98 1018.5
20260906114058 19 243 0.0 1.6 0.00 0.00 0.00 98 1018.5
20260906113558 19 360 0.0 0.0 0.00 0.00 0.00 98 1018.5
20260906113100 19 235 0.0 0.0 0.00 0.00 0.00 97 1018.4
20260906112557 19 360 0.0 0.0 0.00 0.00 0.00 97 1018.4
20260906112058 19 360 0.0 0.0 0.00 0.00 0.00 97 1018.4
20260906111557 19 360 0.0 0.0 0.00 0.00 0.00 97 1018.4
20260906111058 19 184 0.0 0.0 0.00 0.00 0.00 97 1018.4
20260906110557 19 360 0.0 0.0 0.00 0.00 0.00 97 1018.4
20260906110105 19 360 0.0 0.0 0.00 0.00 0.00 97 1018.4
20260906105557 19 360 0.0 0.0 0.00 0.00 0.00 97 1018.4
20260906105058 20 360 0.0 0.0 0.00 0.00 0.00 96 1018.3
20260906104558 20 360 0.0 0.0 0.00 0.00 0.00 97 1018.3
20260906104058 20 360 0.0 0.0 0.00 0.00 0.00 97 1018.2
20260906103557 20 225 0.0 1.6 0.00 0.00 0.00 97 1018.2
20260906103059 20 260 0.0 1.6 0.00 0.00 0.00 96 1018.2
20260906102557 20 206 0.0 1.6 0.00 0.00 0.00 96 1018.2
20260906102058 20 208 0.0 1.6 0.00 0.00 0.00 96 1018.2
20260906101557 20 167 0.0 1.6 0.00 0.00 0.00 96 1018.2
20260906101058 20 162 0.0 0.0 0.00 0.00 0.00 96 1018.1
20260906100556 20 217 0.0 0.0 0.00 0.00 0.00 96 1018.1
20260906100057 20 360 0.0 0.0 0.00 0.00 0.00 95 1018.1
20260906095558 20 224 0.0 0.0 0.00 0.00 0.00 95 1018.0
20260906095057 20 360 0.0 0.0 0.00 0.00 0.00 95 1017.8
20260906094557 20 360 0.0 0.0 0.00 0.00 0.00 95 1017.7
20260906094059 20 360 0.0 0.0 0.00 0.00 0.00 95 1017.6
20260906093557 20 360 0.0 0.0 0.00 0.00 0.00 94 1017.5
20260906093057 20 225 0.0 1.6 0.00 0.00 0.00 94 1017.5
20260906092557 20 219 0.0 0.0 0.00 0.00 0.00 94 1017.5
20260906092058 20 360 0.0 0.0 0.00 0.00 0.00 93 1017.5
20260906091557 20 206 1.6 3.2 0.00 0.00 0.00 93 1017.6
20260906091059 21 194 1.6 1.6 0.00 0.00 0.00 93 1017.6
20260906090557 21 248 0.0 1.6 0.00 0.00 0.00 93 1017.6
20260906090059 21 21 0.0 1.6 0.00 0.00 0.00 93 1017.6
20260906085557 21 360 0.0 0.0 0.00 0.00 0.00 93 1017.6
20260906085058 21 360 0.0 0.0 0.00 0.00 0.00 93 1017.5
20260906084557 21 360 0.0 0.0 0.00 0.00 0.00 93 1017.5
20260906084058 21 360 0.0 0.0 0.00 0.00 0.00 93 1017.5
20260906083557 21 248 1.6 1.6 0.00 0.00 0.00 92 1017.5
20260906083100 21 360 0.0 0.0 0.00 0.00 0.00 92 1017.5
20260906082557 21 247 1.6 3.2 0.00 0.00 0.00 91 1017.4
20260906082058 21 222 0.0 0.0 0.00 0.00 0.00 90 1017.5
20260906081558 21 208 1.6 1.6 0.00 0.00 0.00 90 1017.5
20260906081058 21 247 0.0 1.6 0.00 0.00 0.00 90 1017.3
20260906080557 21 161 0.0 1.6 0.00 0.00 0.00 90 1017.4
20260906080100 21 296 1.6 1.6 0.00 0.00 0.00 89 1017.4
20260906075557 21 360 0.0 0.0 0.00 0.00 0.00 89 1017.4
20260906075058 21 286 0.0 1.6 0.00 0.00 0.00 89 1017.5
20260906074557 21 15 0.0 0.0 0.00 0.00 0.00 89 1017.5
20260906074100 21 360 0.0 0.0 0.00 0.00 0.00 89 1017.6
20260906073557 21 360 0.0 0.0 0.00 0.00 0.00 89 1017.6
20260906073058 21 360 0.0 0.0 0.00 0.00 0.00 89 1017.7
20260906072558 21 360 0.0 0.0 0.00 0.00 0.00 89 1017.8
20260906072059 21 360 0.0 0.0 0.00 0.00 0.00 88 1017.8
20260906071557 21 252 0.0 0.0 0.00 0.00 0.00 89 1017.8
20260906071058 21 360 0.0 0.0 0.00 0.00 0.00 89 1017.8
20260906070556 21 360 0.0 0.0 0.00 0.00 0.00 89 1017.8
20260906070100 21 360 0.0 0.0 0.00 0.00 0.00 88 1017.8
20260906065556 21 360 0.0 0.0 0.00 0.00 0.00 88 1017.8
20260906065058 22 360 0.0 0.0 0.00 0.00 0.00 88 1017.7
20260906064558 22 360 0.0 0.0 0.00 0.00 0.00 88 1017.7
20260906064059 22 360 0.0 0.0 0.00 0.00 0.00 87 1017.8
20260906063556 22 360 0.0 0.0 0.00 0.00 0.00 87 1017.9
20260906063100 22 360 0.0 0.0 0.00 0.00 0.00 86 1017.9
20260906062556 22 360 0.0 0.0 0.00 0.00 0.00 85 1017.9
20260906062057 22 360 0.0 0.0 0.00 0.00 0.00 85 1018.0
20260906061558 22 360 0.0 0.0 0.00 0.00 0.00 86 1017.9
20260906061058 22 360 0.0 0.0 0.00 0.00 0.00 86 1017.9
20260906060557 22 248 0.0 1.6 0.00 0.00 0.00 86 1017.9
20260906060100 22 268 0.0 0.0 0.00 0.00 0.00 86 1017.9
20260906055557 22 231 0.0 1.6 0.00 0.00 0.00 87 1017.8
20260906055057 22 239 1.6 4.8 0.00 0.00 0.00 87 1017.8
20260906054558 22 233 0.0 1.6 0.00 0.00 0.00 87 1017.7
20260906054059 22 360 0.0 0.0 0.00 0.00 0.00 88 1017.8
20260906053558 22 251 0.0 1.6 0.00 0.00 0.00 88 1017.8
20260906053059 22 360 0.0 0.0 0.00 0.00 0.00 89 1017.8
20260906052557 22 213 0.0 1.6 0.00 0.00 0.00 89 1017.8
20260906052059 21 235 0.0 1.6 0.00 0.00 0.00 90 1017.9
20260906051557 21 160 0.0 0.0 0.00 0.00 0.00 90 1017.9
20260906051059 21 360 0.0 0.0 0.00 0.00 0.00 91 1018.0
20260906050557 21 360 0.0 0.0 0.00 0.00 0.00 91 1018.0
20260906050101 21 360 0.0 0.0 0.00 0.00 0.00 91 1017.9
20260906045557 21 360 0.0 0.0 0.00 0.00 0.00 91 1018.0
20260906045058 21 360 0.0 0.0 0.00 0.00 0.00 92 1018.0
20260906044557 21 360 0.0 0.0 0.00 0.00 0.00 92 1018.1
20260906044058 21 360 0.0 0.0 0.00 0.00 0.00 92 1018.2
20260906043557 21 360 0.0 0.0 0.00 0.00 0.00 91 1018.2
20260906043059 21 360 0.0 0.0 0.00 0.00 0.00 91 1018.2
20260906042556 21 360 0.0 0.0 0.00 0.00 0.00 91 1018.2
20260906042058 21 360 0.0 0.0 0.00 0.00 0.00 91 1018.1
20260906041558 21 171 0.0 0.0 0.00 0.00 0.00 91 1018.1
20260906041058 21 160 0.0 1.6 0.00 0.00 0.00 91 1018.2
20260906040557 21 238 0.0 1.6 0.00 0.00 0.00 91 1018.2
20260906040100 21 360 0.0 0.0 0.00 0.00 0.00 90 1018.2
20260906035557 21 360 0.0 0.0 0.00 0.00 0.00 90 1018.3
20260906035058 21 70 0.0 0.0 0.00 0.00 0.00 90 1018.3
20260906034557 22 360 0.0 0.0 0.00 0.00 0.00 90 1018.3
20260906034058 22 360 0.0 0.0 0.00 0.00 0.00 89 1018.2
20260906033557 22 360 0.0 0.0 0.00 0.00 0.00 89 1018.1
20260906033059 22 360 0.0 0.0 0.00 0.00 0.00 88 1018.1
20260906032558 22 360 0.0 0.0 0.00 0.00 0.00 88 1018.1
20260906032059 22 360 0.0 0.0 0.00 0.00 0.00 89 1018.2
20260906031557 22 144 0.0 1.6 0.00 0.00 0.00 88 1018.2
20260906031059 22 360 0.0 0.0 0.00 0.00 0.00 89 1018.3
20260906030557 22 360 0.0 0.0 0.00 0.00 0.00 88 1018.2
20260906030101 22 75 0.0 1.6 0.00 0.00 0.00 88 1018.2
20260906025557 22 360 0.0 0.0 0.00 0.00 0.00 88 1018.3
20260906025059 22 307 0.0 0.0 0.00 0.00 0.00 89 1018.3
20260906024557 22 360 0.0 0.0 0.00 0.00 0.00 90 1018.2
20260906024058 22 360 0.0 0.0 0.00 0.00 0.00 88 1018.1
20260906023557 22 360 0.0 0.0 0.00 0.00 0.00 87 1017.9
20260906023100 22 360 0.0 0.0 0.00 0.00 0.00 87 1017.8
20260906022557 22 89 0.0 0.0 0.00 0.00 0.00 88 1017.8
20260906022059 22 360 0.0 0.0 0.00 0.00 0.00 88 1017.7
20260906021557 22 360 0.0 0.0 0.00 0.00 0.00 88 1017.7
20260906021058 22 360 0.0 0.0 0.00 0.00 0.00 86 1017.7
20260906020557 22 360 0.0 0.0 0.00 0.00 0.00 85 1017.5
20260906020057 23 360 0.0 0.0 0.00 0.00 0.00 84 1017.3
20260906015556 23 360 0.0 0.0 0.00 0.00 0.00 83 1017.1
20260906015059 23 360 0.0 0.0 0.00 0.00 0.00 82 1017.0
20260906014558 23 360 0.0 0.0 0.00 0.00 0.00 82 1016.8
20260906014058 23 72 0.0 0.0 0.00 0.00 0.00 81 1016.7
20260906013557 23 360 0.0 0.0 0.00 0.00 0.00 81 1016.6
20260906013101 23 360 0.0 0.0 0.00 0.00 0.00 80 1016.4
20260906012557 23 204 0.0 1.6 0.00 0.00 0.00 79 1016.4
20260906012059 24 94 0.0 0.0 0.00 0.00 0.00 79 1016.3
20260906011557 24 258 0.0 1.6 0.00 0.00 0.00 78 1016.3
20260906011059 24 229 0.0 1.6 0.00 0.00 0.00 77 1016.3
20260906010558 24 213 0.0 1.6 0.00 0.00 0.00 76 1016.3
20260906005557 25 269 0.0 1.6 0.00 0.00 0.00 75 1016.2
20260906005059 25 221 0.0 3.2 0.00 0.00 0.00 75 1016.1
20260906004559 25 360 0.0 0.0 0.00 0.00 0.00 76 1016.1
20260906004059 25 267 0.0 3.2 0.00 0.00 0.00 76 1016.0
20260906003557 26 360 0.0 0.0 0.00 0.00 0.00 75 1015.9
20260906003059 26 360 0.0 0.0 0.00 0.00 0.00 75 1015.9
20260906002557 26 360 0.0 0.0 0.00 0.00 0.00 74 1016.0
20260906002059 26 360 0.0 0.0 0.00 0.00 0.00 74 1015.9
20260906001557 26 113 0.0 0.0 0.00 0.00 0.00 73 1015.8
20260906001059 26 340 0.0 0.0 0.00 0.00 0.00 73 1015.7
20260906000557 27 266 1.6 3.2 0.00 0.00 0.00 71 1015.5
20260906000103 27 216 1.6 3.2 0.00 0.00 0.00 70 1015.5
20260905235558 27 310 1.6 3.2 0.00 0.00 0.00 70 1015.7
20260905235059 27 235 0.0 3.2 0.00 0.00 0.00 68 1015.5
20260905234557 27 247 0.0 3.2 0.00 0.00 0.00 68 1015.5
20260905234059 28 224 1.6 3.2 0.00 0.00 0.00 66 1015.5
20260905233557 28 222 1.6 4.8 0.00 0.00 0.00 67 1015.5
20260905233100 28 200 1.6 6.4 0.00 0.00 0.00 66 1015.4
20260905232557 28 211 0.0 3.2 0.00 0.00 0.00 66 1015.4
20260905232100 28 345 0.0 3.2 0.00 0.00 0.00 67 1015.4
20260905231557 28 262 1.6 3.2 0.00 0.00 0.00 65 1015.2
20260905231058 28 230 0.0 1.6 0.00 0.00 0.00 66 1015.2
20260905230557 28 190 1.6 3.2 0.00 0.00 0.00 65 1015.1
20260905230100 28 250 3.2 8.0 0.00 0.00 0.00 65 1015.0
20260905225557 28 214 1.6 9.7 0.00 0.00 0.00 66 1014.9
20260905225059 28 275 1.6 3.2 0.00 0.00 0.00 66 1014.8
20260905224558 28 322 0.0 1.6 0.00 0.00 0.00 66 1014.8
20260905224059 27 248 1.6 3.2 0.00 0.00 0.00 67 1014.9
20260905223557 27 360 0.0 0.0 0.00 0.00 0.00 67 1014.9
20260905223059 28 269 1.6 4.8 0.00 0.00 0.00 67 1015.0
20260905222557 28 295 0.0 1.6 0.00 0.00 0.00 66 1015.0
20260905222059 28 252 0.0 0.0 0.00 0.00 0.00 66 1015.1
20260905221557 28 208 1.6 6.4 0.00 0.00 0.00 63 1015.2
20260905221059 28 283 0.0 1.6 0.00 0.00 0.00 62 1015.1
20260905220556 28 21 0.0 6.4 0.00 0.00 0.00 62 1015.2
20260905215557 28 211 1.6 3.2 0.00 0.00 0.00 64 1015.4
20260905215059 28 40 1.6 9.7 0.00 0.00 0.00 62 1015.2
20260905214557 28 47 1.6 4.8 0.00 0.00 0.00 62 1015.0
20260905214058 28 30 1.6 3.2 0.00 0.00 0.00 62 1015.0
20260905213557 28 32 3.2 4.8 0.00 0.00 0.00 63 1015.0
20260905213101 28 1 0.0 3.2 0.00 0.00 0.00 64 1015.2
20260905212557 28 343 0.0 3.2 0.00 0.00 0.00 64 1015.2
20260905212059 28 254 0.0 3.2 0.00 0.00 0.00 63 1015.3
20260905211558 28 23 1.6 3.2 0.00 0.00 0.00 63 1015.3
20260905211056 28 27 1.6 4.8 0.00 0.00 0.00 63 1015.3
20260905210557 27 43 3.2 4.8 0.00 0.00 0.00 63 1015.3
20260905210100 27 57 3.2 6.4 0.00 0.00 0.00 65 1015.5
20260905205557 27 23 3.2 4.8 0.00 0.00 0.00 65 1015.8
20260905205059 27 85 1.6 3.2 0.00 0.00 0.00 66 1015.8
20260905204557 27 39 1.6 4.8 0.00 0.00 0.00 66 1015.9
20260905204059 27 51 1.6 6.4 0.00 0.00 0.00 65 1016.1
20260905203557 28 34 0.0 3.2 0.00 0.00 0.00 65 1016.2
20260905203058 28 64 1.6 4.8 0.00 0.00 0.00 65 1016.4
20260905202557 27 360 1.6 3.2 0.00 0.00 0.00 65 1016.4
20260905202056 27 15 1.6 3.2 0.00 0.00 0.00 65 1016.5
20260905201557 27 20 0.0 3.2 0.00 0.00 0.00 67 1016.6
20260905201059 27 95 0.0 1.6 0.00 0.00 0.00 67 1016.7
20260905200558 27 57 0.0 3.2 0.00 0.00 0.00 68 1016.8
20260905195556 27 189 1.6 3.2 0.00 0.00 0.00 68 1017.0
20260905195058 27 51 0.0 1.6 0.00 0.00 0.00 69 1017.0
20260905194557 27 8 0.0 1.6 0.00 0.00 0.00 70 1017.2
20260905194059 27 64 1.6 3.2 0.00 0.00 0.00 70 1017.2
20260905193556 27 50 0.0 3.2 0.00 0.00 0.00 70 1017.3
20260905193100 27 244 0.0 1.6 0.00 0.00 0.00 71 1017.2
20260905192557 27 44 0.0 3.2 0.00 0.00 0.00 70 1017.1
20260905192059 27 350 0.0 3.2 0.00 0.00 0.00 69 1017.2
20260905191557 27 360 0.0 0.0 0.00 0.00 0.00 70 1017.2
20260905191059 27 360 0.0 0.0 0.00 0.00 0.00 70 1017.2
20260905190557 27 4 0.0 1.6 0.00 0.00 0.00 70 1017.2
20260905190057 27 296 0.0 1.6 0.00 0.00 0.00 70 1017.2
20260905185558 27 38 1.6 3.2 0.00 0.00 0.00 69 1017.1
20260905185059 28 32 1.6 3.2 0.00 0.00 0.00 68 1017.1
20260905184557 28 15 0.0 1.6 0.00 0.00 0.00 68 1017.2
20260905184057 28 331 0.0 1.6 0.00 0.00 0.00 68 1017.2
20260905183559 28 223 0.0 3.2 0.00 0.00 0.00 69 1017.2
20260905183100 28 11 0.0 1.6 0.00 0.00 0.00 69 1017.2
20260905182557 27 355 0.0 1.6 0.00 0.00 0.00 70 1017.2
20260905182100 27 33 1.6 3.2 0.00 0.00 0.00 69 1017.3
20260905181557 27 85 0.0 1.6 0.00 0.00 0.00 72 1017.3
20260905181100 27 360 1.6 3.2 0.00 0.00 0.00 70 1017.3
20260905180557 27 34 0.0 3.2 0.00 0.00 0.00 69 1017.3
20260905175557 27 207 0.0 4.8 0.00 0.00 0.00 70 1017.5
20260905175058 27 6 1.6 3.2 0.00 0.00 0.00 71 1017.6
20260905174557 27 252 1.6 3.2 0.00 0.00 0.00 71 1017.7